Трентон

США     40°13′19″N   74°45′52″W
темп.,
°C
ветер,
м/с
пор.,
м/с
влажн.,
%
обл.,
%
осадки,
мм/ч
давл.,
гПа
погр.,
м
17 октября, вс
вс1723:00+14сз4108530 3.6 1009930
02:00+12зсз411790 3.6 1010651
05:00+11зсз411770 0.0 1010557
08:00+11зсз410805 0.0 1011481
11:00+15зсз58555 0.0 10111212
14:00+15зсз6852100 0.1 10101670
17:00+15зсз5105479 0.2 10101611
20:00+12зсз4106511 0.2 1012857
18 октября, пн
пн1823:00+11зсз41167100 0.0 1013670
02:00+11зсз41067100 0.0 1012605
05:00+10з410695 0.0 1012452
08:00+10з412705 0.0 1013522
11:00+14зсз69541 0.0 10121251
14:00+14сз7115699 0.1 10121837
17:00+12сз611595 0.0 10141217
20:00+10сз410655 0.0 1016992
19 октября, вт
вт1923:00+8зсз38735 0.0 1017665
02:00+8зсз511685 0.0 1017660
05:00+7зсз410730 0.0 1019571
08:00+7зсз411730 0.0 1019423
11:00+13зсз49460 0.0 1019781
14:00+18зсз69440 0.0 10171310
17:00+18з510540 0.0 10151196
20:00+16з614560 0.0 1016786
20 октября, ср
ср2023:00+15з514610 0.0 1016610
02:00+14з413675 0.0 1017538
05:00+13з411735 0.0 1017398
08:00+13з411745 0.0 1018357
11:00+19зсз47565 0.0 1018640
14:00+22зсз57450 0.0 10171272
17:00+21з47510 0.0 1017887
20:00+17з396454 0.0 1018323
21 октября, чт
чт2123:00+15з37680 0.0 1018196
02:00+14зюз25710 0.0 1018124
05:00+13зюз24730 0.0 101893
08:00+13юз26710 0.0 1018167
11:00+20юз47455 0.0 1017617
14:00+23юз473462 0.0 10141239
17:00+22юз483894 0.0 1013876
20:00+20юз3945100 0.0 1013561